| time (UTC) | temp F | wind direction | speed MPH | gust MPH | rain 1hr in | rain 24hr in | rain mn in | humidity % | barometer mb |
| 20260506022810 | 52 | 314 | 3.0 | 4.0 | 0.00 | 0.00 | 0.00 | 84 | 1016.8 |
| 20260506022310 | 53 | 311 | 3.0 | 4.0 | 0.00 | 0.00 | 0.00 | 85 | 1016.9 |
| 20260506021810 | 53 | 310 | 2.0 | 3.0 | 0.00 | 0.00 | 0.00 | 85 | 1016.9 |
| 20260506021310 | 53 | 309 | 2.0 | 3.0 | 0.00 | 0.00 | 0.00 | 85 | 1017.0 |
| 20260506020810 | 53 | 309 | 2.0 | 3.0 | 0.00 | 0.00 | 0.00 | 86 | 1017.1 |
| 20260506020310 | 53 | 309 | 2.0 | 2.0 | 0.00 | 0.00 | 0.00 | 85 | 1017.1 |
| 20260506015810 | 53 | 309 | 1.0 | 2.0 | 0.00 | 0.00 | 0.00 | 86 | 1017.0 |
| 20260506015310 | 53 | 309 | 2.0 | 3.0 | 0.00 | 0.00 | 0.00 | 86 | 1017.1 |
| 20260506014810 | 53 | 309 | 1.0 | 3.0 | 0.00 | 0.00 | 0.00 | 86 | 1017.0 |
| 20260506014310 | 53 | 326 | 1.0 | 3.0 | 0.00 | 0.00 | 0.00 | 86 | 1017.0 |
| 20260506013810 | 54 | 288 | 2.0 | 3.0 | 0.00 | 0.00 | 0.00 | 85 | 1017.1 |
| 20260506013310 | 54 | 286 | 2.0 | 3.0 | 0.00 | 0.00 | 0.00 | 85 | 1017.1 |
| 20260506012810 | 54 | 280 | 1.0 | 3.0 | 0.00 | 0.00 | 0.00 | 85 | 1017.1 |
| 20260506012310 | 54 | 279 | 0.0 | 0.0 | 0.00 | 0.00 | 0.00 | 85 | 1017.1 |
| 20260506011810 | 54 | 279 | 1.0 | 2.0 | 0.00 | 0.00 | 0.00 | 85 | 1017.1 |
| 20260506011310 | 54 | 279 | 2.0 | 4.0 | 0.00 | 0.00 | 0.00 | 84 | 1017.1 |
| 20260506010810 | 55 | 284 | 2.0 | 4.0 | 0.00 | 0.00 | 0.00 | 84 | 1017.1 |
| 20260506010310 | 55 | 298 | 2.0 | 3.0 | 0.00 | 0.00 | 0.00 | 83 | 1017.2 |
| 20260506005810 | 55 | 337 | 2.0 | 3.0 | 0.00 | 0.00 | 0.00 | 83 | 1017.1 |
| 20260506005310 | 55 | 338 | 3.0 | 4.0 | 0.00 | 0.00 | 0.00 | 83 | 1017.0 |
| 20260506004810 | 55 | 319 | 3.0 | 4.0 | 0.00 | 0.00 | 0.00 | 83 | 1017.1 |
| 20260506004310 | 55 | 313 | 2.0 | 4.0 | 0.00 | 0.00 | 0.00 | 83 | 1017.1 |
| 20260506003810 | 55 | 327 | 1.0 | 4.0 | 0.00 | 0.00 | 0.00 | 83 | 1017.1 |
| 20260506003310 | 55 | 40 | 2.0 | 3.0 | 0.00 | 0.00 | 0.00 | 83 | 1017.1 |
| 20260506002810 | 55 | 40 | 2.0 | 3.0 | 0.00 | 0.00 | 0.00 | 83 | 1017.1 |
| 20260506002310 | 55 | 40 | 2.0 | 3.0 | 0.00 | 0.00 | 0.00 | 83 | 1017.0 |
| 20260506001810 | 55 | 40 | 2.0 | 3.0 | 0.00 | 0.00 | 0.00 | 84 | 1017.0 |
| 20260506001310 | 55 | 40 | 2.0 | 3.0 | 0.00 | 0.00 | 0.00 | 84 | 1016.9 |
| 20260506000810 | 55 | 40 | 2.0 | 3.0 | 0.00 | 0.00 | 0.00 | 84 | 1017.0 |
| 20260506000310 | 55 | 44 | 2.0 | 3.0 | 0.00 | 0.00 | 0.00 | 83 | 1017.0 |
| 20260505235810 | 55 | 97 | 1.0 | 3.0 | 0.00 | 0.00 | 0.00 | 83 | 1017.1 |
| 20260505235310 | 55 | 159 | 0.0 | 0.0 | 0.00 | 0.00 | 0.00 | 83 | 1017.0 |
| 20260505234810 | 55 | 159 | 0.0 | 1.0 | 0.00 | 0.00 | 0.00 | 82 | 1016.9 |
| 20260505234310 | 56 | 159 | 0.0 | 0.0 | 0.00 | 0.00 | 0.00 | 82 | 1017.0 |
| 20260505233810 | 56 | 159 | 0.0 | 0.0 | 0.00 | 0.00 | 0.00 | 82 | 1017.0 |
| 20260505233310 | 56 | 159 | 1.0 | 0.0 | 0.00 | 0.00 | 0.00 | 82 | 1017.1 |
| 20260505232810 | 56 | 159 | 2.0 | 4.0 | 0.00 | 0.00 | 0.00 | 82 | 1017.2 |
| 20260505232310 | 56 | 160 | 2.0 | 4.0 | 0.00 | 0.00 | 0.00 | 82 | 1017.3 |
| 20260505231810 | 56 | 159 | 2.0 | 5.0 | 0.00 | 0.00 | 0.00 | 83 | 1017.3 |
| 20260505231310 | 56 | 146 | 1.0 | 3.0 | 0.00 | 0.00 | 0.00 | 82 | 1017.3 |
| 20260505230810 | 56 | 143 | 2.0 | 3.0 | 0.00 | 0.00 | 0.00 | 82 | 1017.4 |
| 20260505230310 | 56 | 143 | 3.0 | 5.0 | 0.00 | 0.00 | 0.00 | 82 | 1017.4 |
| 20260505225810 | 56 | 121 | 3.0 | 4.0 | 0.00 | 0.00 | 0.00 | 83 | 1017.4 |
| 20260505225310 | 56 | 94 | 3.0 | 4.0 | 0.00 | 0.00 | 0.00 | 82 | 1017.5 |
| 20260505224810 | 57 | 74 | 3.0 | 3.0 | 0.00 | 0.00 | 0.00 | 82 | 1017.6 |
| 20260505224310 | 57 | 76 | 2.0 | 4.0 | 0.00 | 0.00 | 0.00 | 81 | 1017.6 |
| 20260505223810 | 58 | 124 | 3.0 | 3.0 | 0.00 | 0.00 | 0.00 | 81 | 1017.6 |
| 20260505223310 | 58 | 153 | 4.0 | 5.0 | 0.00 | 0.00 | 0.00 | 82 | 1017.6 |
| 20260505222810 | 58 | 175 | 5.0 | 7.0 | 0.00 | 0.00 | 0.00 | 81 | 1017.5 |
| 20260505222310 | 58 | 160 | 4.0 | 7.0 | 0.00 | 0.00 | 0.00 | 81 | 1017.6 |
| 20260505221810 | 58 | 176 | 2.0 | 6.0 | 0.00 | 0.00 | 0.00 | 81 | 1017.5 |
| 20260505221310 | 58 | 153 | 2.0 | 6.0 | 0.00 | 0.00 | 0.00 | 80 | 1017.6 |
| 20260505220810 | 58 | 355 | 2.0 | 2.0 | 0.00 | 0.00 | 0.00 | 80 | 1017.5 |
| 20260505220310 | 58 | 355 | 2.0 | 3.0 | 0.00 | 0.00 | 0.00 | 80 | 1017.6 |
| 20260505215810 | 58 | 355 | 2.0 | 3.0 | 0.00 | 0.00 | 0.00 | 79 | 1017.7 |
| 20260505215310 | 59 | 355 | 2.0 | 4.0 | 0.00 | 0.00 | 0.00 | 79 | 1017.7 |
| 20260505214810 | 59 | 325 | 1.0 | 3.0 | 0.00 | 0.00 | 0.00 | 78 | 1017.6 |
| 20260505214310 | 60 | 274 | 1.0 | 2.0 | 0.00 | 0.00 | 0.00 | 78 | 1017.6 |
| 20260505213810 | 60 | 273 | 0.0 | 2.0 | 0.00 | 0.00 | 0.00 | 78 | 1017.6 |
| 20260505213310 | 60 | 273 | 0.0 | 0.0 | 0.00 | 0.00 | 0.00 | 77 | 1017.6 |
| 20260505212810 | 60 | 273 | 0.0 | 0.0 | 0.00 | 0.00 | 0.00 | 77 | 1017.5 |
| 20260505212310 | 60 | 273 | 1.0 | 1.0 | 0.00 | 0.00 | 0.00 | 77 | 1017.6 |
| 20260505211810 | 60 | 273 | 1.0 | 2.0 | 0.00 | 0.00 | 0.00 | 77 | 1017.5 |
| 20260505211310 | 60 | 273 | 2.0 | 3.0 | 0.00 | 0.00 | 0.00 | 77 | 1017.6 |
| 20260505210810 | 60 | 273 | 2.0 | 4.0 | 0.00 | 0.00 | 0.00 | 76 | 1017.5 |
| 20260505210310 | 61 | 289 | 1.0 | 3.0 | 0.00 | 0.00 | 0.00 | 76 | 1017.6 |
| 20260505205810 | 60 | 345 | 0.0 | 2.0 | 0.00 | 0.00 | 0.00 | 75 | 1017.5 |
| 20260505205310 | 61 | 345 | 0.0 | 0.0 | 0.00 | 0.00 | 0.00 | 75 | 1017.7 |
| 20260505204810 | 61 | 345 | 0.0 | 0.0 | 0.00 | 0.00 | 0.00 | 75 | 1017.6 |
| 20260505204310 | 61 | 345 | 1.0 | 1.0 | 0.00 | 0.00 | 0.00 | 74 | 1017.6 |
| 20260505203810 | 61 | 345 | 3.0 | 3.0 | 0.00 | 0.00 | 0.00 | 74 | 1017.6 |
| 20260505203310 | 61 | 345 | 3.0 | 5.0 | 0.00 | 0.00 | 0.00 | 74 | 1017.6 |
| 20260505202810 | 61 | 338 | 3.0 | 4.0 | 0.00 | 0.00 | 0.00 | 74 | 1017.6 |
| 20260505202310 | 61 | 309 | 3.0 | 3.0 | 0.00 | 0.00 | 0.00 | 75 | 1017.6 |
| 20260505201810 | 61 | 306 | 2.0 | 3.0 | 0.00 | 0.00 | 0.00 | 74 | 1017.6 |
| 20260505201310 | 61 | 306 | 2.0 | 3.0 | 0.00 | 0.00 | 0.00 | 74 | 1017.7 |
| 20260505200810 | 61 | 304 | 3.0 | 6.0 | 0.00 | 0.00 | 0.00 | 73 | 1017.5 |
| 20260505200310 | 61 | 276 | 4.0 | 6.0 | 0.00 | 0.00 | 0.00 | 73 | 1017.5 |
| 20260505195810 | 62 | 272 | 4.0 | 6.0 | 0.00 | 0.00 | 0.00 | 72 | 1017.5 |
| 20260505195310 | 62 | 263 | 2.0 | 6.0 | 0.00 | 0.00 | 0.00 | 71 | 1017.6 |
| 20260505194811 | 62 | 337 | 1.0 | 2.0 | 0.00 | 0.00 | 0.00 | 70 | 1017.5 |
| 20260505194311 | 63 | 337 | 1.0 | 3.0 | 0.00 | 0.00 | 0.00 | 69 | 1017.3 |
| 20260505193810 | 63 | 13 | 0.0 | 0.0 | 0.00 | 0.00 | 0.00 | 68 | 1017.3 |
| 20260505193310 | 62 | 13 | 1.0 | 2.0 | 0.00 | 0.00 | 0.00 | 69 | 1017.3 |
| 20260505192811 | 62 | 13 | 1.0 | 2.0 | 0.00 | 0.00 | 0.00 | 70 | 1017.3 |
| 20260505192311 | 62 | 13 | 1.0 | 3.0 | 0.00 | 0.00 | 0.00 | 69 | 1017.3 |
| 20260505191811 | 63 | 13 | 2.0 | 2.0 | 0.00 | 0.00 | 0.00 | 69 | 1017.2 |
| 20260505191311 | 63 | 13 | 2.0 | 3.0 | 0.00 | 0.00 | 0.00 | 69 | 1017.3 |
| 20260505190811 | 63 | 13 | 1.0 | 3.0 | 0.00 | 0.00 | 0.00 | 69 | 1017.1 |
| 20260505190311 | 63 | 119 | 1.0 | 0.0 | 0.00 | 0.00 | 0.00 | 67 | 1017.1 |
| 20260505185811 | 63 | 120 | 2.0 | 3.0 | 0.00 | 0.00 | 0.00 | 67 | 1017.1 |
| 20260505185311 | 63 | 120 | 3.0 | 4.0 | 0.00 | 0.00 | 0.00 | 67 | 1016.9 |
| 20260505184811 | 63 | 121 | 2.0 | 4.0 | 0.00 | 0.00 | 0.00 | 66 | 1016.9 |
| 20260505184311 | 63 | 143 | 1.0 | 3.0 | 0.00 | 0.00 | 0.00 | 66 | 1016.9 |
| 20260505183811 | 63 | 144 | 1.0 | 3.0 | 0.00 | 0.00 | 0.00 | 66 | 1016.9 |
| 20260505183311 | 63 | 118 | 1.0 | 3.0 | 0.00 | 0.00 | 0.00 | 66 | 1016.8 |
| 20260505182811 | 63 | 118 | 1.0 | 2.0 | 0.00 | 0.00 | 0.00 | 67 | 1016.9 |
| 20260505182311 | 63 | 118 | 1.0 | 3.0 | 0.00 | 0.00 | 0.00 | 67 | 1016.8 |
| 20260505181811 | 63 | 108 | 1.0 | 3.0 | 0.00 | 0.00 | 0.00 | 66 | 1016.7 |
| 20260505181311 | 64 | 108 | 2.0 | 3.0 | 0.00 | 0.00 | 0.00 | 67 | 1016.7 |
| 20260505180811 | 64 | 88 | 2.0 | 4.0 | 0.00 | 0.00 | 0.00 | 66 | 1016.7 |
| 20260505180311 | 64 | 88 | 2.0 | 4.0 | 0.00 | 0.00 | 0.00 | 66 | 1016.6 |
| 20260505175811 | 64 | 81 | 2.0 | 3.0 | 0.00 | 0.00 | 0.00 | 66 | 1016.6 |
| 20260505175311 | 64 | 135 | 3.0 | 4.0 | 0.00 | 0.00 | 0.00 | 66 | 1016.7 |
| 20260505174811 | 64 | 134 | 3.0 | 5.0 | 0.00 | 0.00 | 0.00 | 66 | 1016.8 |
| 20260505174311 | 64 | 130 | 3.0 | 5.0 | 0.00 | 0.00 | 0.00 | 66 | 1016.8 |
| 20260505173811 | 64 | 140 | 3.0 | 5.0 | 0.00 | 0.00 | 0.00 | 65 | 1016.8 |
| 20260505173311 | 65 | 142 | 4.0 | 5.0 | 0.00 | 0.00 | 0.00 | 65 | 1017.0 |
| 20260505172811 | 65 | 152 | 4.0 | 6.0 | 0.00 | 0.00 | 0.00 | 65 | 1017.0 |
| 20260505172311 | 65 | 134 | 5.0 | 8.0 | 0.00 | 0.00 | 0.00 | 64 | 1016.9 |
| 20260505171811 | 65 | 153 | 5.0 | 9.0 | 0.00 | 0.00 | 0.00 | 63 | 1016.9 |
| 20260505171311 | 65 | 153 | 4.0 | 7.0 | 0.00 | 0.00 | 0.00 | 62 | 1017.0 |
| 20260505170811 | 66 | 145 | 4.0 | 7.0 | 0.00 | 0.00 | 0.00 | 62 | 1016.9 |
| 20260505170311 | 66 | 119 | 5.0 | 8.0 | 0.00 | 0.00 | 0.00 | 61 | 1016.9 |
| 20260505165811 | 66 | 121 | 5.0 | 7.0 | 0.00 | 0.00 | 0.00 | 60 | 1016.9 |
| 20260505165311 | 66 | 140 | 5.0 | 8.0 | 0.00 | 0.00 | 0.00 | 59 | 1017.0 |
| 20260505164811 | 67 | 138 | 4.0 | 8.0 | 0.00 | 0.00 | 0.00 | 56 | 1016.9 |
| 20260505164311 | 67 | 138 | 3.0 | 6.0 | 0.00 | 0.00 | 0.00 | 53 | 1016.9 |
| 20260505163811 | 68 | 142 | 2.0 | 7.0 | 0.00 | 0.00 | 0.00 | 49 | 1017.0 |
| 20260505163311 | 68 | 175 | 2.0 | 5.0 | 0.00 | 0.00 | 0.00 | 47 | 1017.0 |
| 20260505162811 | 68 | 207 | 3.0 | 4.0 | 0.00 | 0.00 | 0.00 | 47 | 1016.9 |
| 20260505162311 | 68 | 207 | 2.0 | 4.0 | 0.00 | 0.00 | 0.00 | 46 | 1016.9 |
| 20260505161811 | 68 | 228 | 2.0 | 3.0 | 0.00 | 0.00 | 0.00 | 47 | 1017.0 |
| 20260505161311 | 68 | 178 | 2.0 | 3.0 | 0.00 | 0.00 | 0.00 | 47 | 1017.1 |
| 20260505160811 | 68 | 177 | 1.0 | 3.0 | 0.00 | 0.00 | 0.00 | 47 | 1017.2 |
| 20260505160311 | 68 | 175 | 2.0 | 4.0 | 0.00 | 0.00 | 0.00 | 47 | 1017.1 |
| 20260505153311 | 69 | 216 | 5.0 | 7.0 | 0.00 | 0.00 | 0.00 | 49 | 1017.4 |
| 20260505152811 | 69 | 225 | 5.0 | 6.0 | 0.00 | 0.00 | 0.00 | 48 | 1017.4 |
| 20260505152311 | 69 | 211 | 5.0 | 8.0 | 0.00 | 0.00 | 0.00 | 47 | 1017.4 |
| 20260505151811 | 69 | 197 | 4.0 | 8.0 | 0.00 | 0.00 | 0.00 | 48 | 1017.4 |
| 20260505151311 | 69 | 193 | 5.0 | 6.0 | 0.00 | 0.00 | 0.00 | 49 | 1017.5 |
| 20260505150811 | 69 | 252 | 6.0 | 10.0 | 0.00 | 0.00 | 0.00 | 48 | 1017.5 |
| 20260505150311 | 69 | 228 | 6.0 | 8.0 | 0.00 | 0.00 | 0.00 | 48 | 1017.5 |
| 20260505140311 | 71 | 252 | 6.0 | 11.0 | 0.00 | 0.00 | 0.00 | 46 | 1017.3 |
| 20260505130311 | 70 | 235 | 11.0 | 15.0 | 0.00 | 0.00 | 0.00 | 52 | 1017.6 |
| 20260505124811 | 71 | 261 | 8.0 | 12.0 | 0.00 | 0.00 | 0.00 | 46 | 1017.7 |
| 20260505124311 | 71 | 252 | 9.0 | 12.0 | 0.00 | 0.00 | 0.00 | 46 | 1017.8 |
| 20260505123811 | 71 | 254 | 9.0 | 13.0 | 0.00 | 0.00 | 0.00 | 44 | 1017.7 |
| 20260505123311 | 71 | 265 | 9.0 | 14.0 | 0.00 | 0.00 | 0.00 | 45 | 1017.7 |
| 20260505122811 | 71 | 259 | 9.0 | 15.0 | 0.00 | 0.00 | 0.00 | 44 | 1017.7 |
| 20260505122311 | 71 | 279 | 8.0 | 13.0 | 0.00 | 0.00 | 0.00 | 46 | 1017.8 |
| 20260505121811 | 71 | 254 | 8.0 | 12.0 | 0.00 | 0.00 | 0.00 | 45 | 1017.8 |
| 20260505121311 | 71 | 290 | 9.0 | 11.0 | 0.00 | 0.00 | 0.00 | 45 | 1017.8 |
| 20260505120811 | 71 | 258 | 9.0 | 13.0 | 0.00 | 0.00 | 0.00 | 46 | 1017.9 |
| 20260505120311 | 70 | 273 | 9.0 | 13.0 | 0.00 | 0.00 | 0.00 | 46 | 1017.8 |
| 20260505115811 | 70 | 273 | 9.0 | 12.0 | 0.00 | 0.00 | 0.00 | 47 | 1017.8 |
| 20260505115311 | 71 | 250 | 8.0 | 13.0 | 0.00 | 0.00 | 0.00 | 45 | 1017.9 |
| 20260505114811 | 71 | 258 | 7.0 | 11.0 | 0.00 | 0.00 | 0.00 | 44 | 1017.9 |
| 20260505114311 | 71 | 279 | 7.0 | 11.0 | 0.00 | 0.00 | 0.00 | 42 | 1017.9 |
| 20260505113811 | 71 | 281 | 7.0 | 10.0 | 0.00 | 0.00 | 0.00 | 42 | 1018.0 |
| 20260505113311 | 71 | 297 | 8.0 | 11.0 | 0.00 | 0.00 | 0.00 | 42 | 1018.1 |
| 20260505112811 | 71 | 317 | 8.0 | 12.0 | 0.00 | 0.00 | 0.00 | 46 | 1018.0 |
| 20260505112311 | 70 | 260 | 8.0 | 11.0 | 0.00 | 0.00 | 0.00 | 48 | 1018.1 |
| 20260505111811 | 70 | 280 | 8.0 | 15.0 | 0.00 | 0.00 | 0.00 | 46 | 1018.1 |
| 20260505111312 | 70 | 281 | 7.0 | 13.0 | 0.00 | 0.00 | 0.00 | 48 | 1018.0 |
| 20260505110811 | 70 | 274 | 7.0 | 11.0 | 0.00 | 0.00 | 0.00 | 47 | 1018.1 |
| 20260505110311 | 70 | 250 | 8.0 | 13.0 | 0.00 | 0.00 | 0.00 | 48 | 1018.0 |
| 20260505101812 | 71 | 202 | 3.0 | 7.0 | 0.00 | 0.00 | 0.00 | 50 | 1018.1 |
| 20260505101312 | 70 | 174 | 3.0 | 7.0 | 0.00 | 0.00 | 0.00 | 50 | 1018.1 |
| 20260505100812 | 70 | 240 | 4.0 | 8.0 | 0.00 | 0.00 | 0.00 | 50 | 1018.2 |
| 20260505100312 | 70 | 120 | 3.0 | 7.0 | 0.00 | 0.00 | 0.00 | 51 | 1018.3 |
| 20260505095812 | 70 | 90 | 2.0 | 7.0 | 0.00 | 0.00 | 0.00 | 51 | 1018.3 |
| 20260505095312 | 70 | 196 | 2.0 | 3.0 | 0.00 | 0.00 | 0.00 | 51 | 1018.2 |
| 20260505094812 | 70 | 213 | 2.0 | 7.0 | 0.00 | 0.00 | 0.00 | 51 | 1018.3 |
| 20260505094312 | 69 | 0 | 2.0 | 6.0 | 0.00 | 0.00 | 0.00 | 52 | 1018.3 |
| 20260505093812 | 69 | 191 | 3.0 | 6.0 | 0.00 | 0.00 | 0.00 | 53 | 1018.3 |
| 20260505093312 | 69 | 296 | 3.0 | 4.0 | 0.00 | 0.00 | 0.00 | 54 | 1018.4 |
| 20260505092812 | 68 | 250 | 2.0 | 5.0 | 0.00 | 0.00 | 0.00 | 54 | 1018.5 |
| 20260505092312 | 68 | 317 | 3.0 | 3.0 | 0.00 | 0.00 | 0.00 | 54 | 1018.7 |
| 20260505091812 | 68 | 344 | 5.0 | 8.0 | 0.00 | 0.00 | 0.00 | 53 | 1018.7 |
| 20260505091312 | 68 | 296 | 3.0 | 7.0 | 0.00 | 0.00 | 0.00 | 55 | 1018.8 |
| 20260505090812 | 68 | 221 | 3.0 | 5.0 | 0.00 | 0.00 | 0.00 | 54 | 1018.7 |
| 20260505090312 | 69 | 288 | 2.0 | 6.0 | 0.00 | 0.00 | 0.00 | 52 | 1018.9 |
| 20260505085812 | 69 | 180 | 1.0 | 6.0 | 0.00 | 0.00 | 0.00 | 53 | 1018.8 |
| 20260505085312 | 68 | 122 | 1.0 | 3.0 | 0.00 | 0.00 | 0.00 | 54 | 1018.8 |
| 20260505084812 | 68 | 337 | 1.0 | 4.0 | 0.00 | 0.00 | 0.00 | 54 | 1018.8 |
| 20260505084312 | 67 | 349 | 1.0 | 3.0 | 0.00 | 0.00 | 0.00 | 55 | 1018.8 |
| 20260505083812 | 67 | 325 | 2.0 | 4.0 | 0.00 | 0.00 | 0.00 | 56 | 1018.7 |
| 20260505083312 | 67 | 350 | 2.0 | 3.0 | 0.00 | 0.00 | 0.00 | 56 | 1018.8 |
| 20260505082812 | 67 | 346 | 1.0 | 3.0 | 0.00 | 0.00 | 0.00 | 56 | 1018.9 |
| 20260505082312 | 67 | 327 | 1.0 | 3.0 | 0.00 | 0.00 | 0.00 | 57 | 1018.8 |
| 20260505081812 | 67 | 329 | 1.0 | 3.0 | 0.00 | 0.00 | 0.00 | 57 | 1018.8 |
| 20260505081312 | 67 | 49 | 1.0 | 3.0 | 0.00 | 0.00 | 0.00 | 56 | 1018.8 |
| 20260505080812 | 67 | 69 | 1.0 | 4.0 | 0.00 | 0.00 | 0.00 | 55 | 1018.8 |
| 20260505080312 | 66 | 32 | 1.0 | 3.0 | 0.00 | 0.00 | 0.00 | 55 | 1018.8 |
| 20260505075812 | 66 | 55 | 2.0 | 4.0 | 0.00 | 0.00 | 0.00 | 55 | 1018.8 |
| 20260505075312 | 65 | 45 | 1.0 | 3.0 | 0.00 | 0.00 | 0.00 | 56 | 1018.8 |
| 20260505074812 | 64 | 17 | 1.0 | 3.0 | 0.00 | 0.00 | 0.00 | 57 | 1018.8 |
| 20260505074312 | 64 | 311 | 1.0 | 3.0 | 0.00 | 0.00 | 0.00 | 57 | 1018.8 |
| 20260505073812 | 65 | 281 | 1.0 | 3.0 | 0.00 | 0.00 | 0.00 | 59 | 1018.8 |
| 20260505073312 | 65 | 355 | 1.0 | 2.0 | 0.00 | 0.00 | 0.00 | 58 | 1018.8 |
| 20260505072812 | 65 | 79 | 1.0 | 3.0 | 0.00 | 0.00 | 0.00 | 59 | 1018.8 |
| 20260505072312 | 65 | 73 | 0.0 | 0.0 | 0.00 | 0.00 | 0.00 | 63 | 1018.8 |
| 20260505071812 | 64 | 73 | 1.0 | 2.0 | 0.00 | 0.00 | 0.00 | 64 | 1018.8 |
| 20260505071312 | 63 | 73 | 1.0 | 3.0 | 0.00 | 0.00 | 0.00 | 67 | 1018.8 |
| 20260505070812 | 63 | 9 | 1.0 | 1.0 | 0.00 | 0.00 | 0.00 | 69 | 1018.8 |
| 20260505070312 | 62 | 9 | 1.0 | 3.0 | 0.00 | 0.00 | 0.00 | 72 | 1018.9 |
| 20260505065812 | 61 | 306 | 0.0 | 0.0 | 0.00 | 0.00 | 0.00 | 72 | 1018.9 |
| 20260505065312 | 60 | 306 | 1.0 | 3.0 | 0.00 | 0.00 | 0.00 | 72 | 1018.9 |
| 20260505064812 | 60 | 314 | 1.0 | 3.0 | 0.00 | 0.00 | 0.00 | 72 | 1018.9 |
| 20260505064312 | 60 | 319 | 1.0 | 3.0 | 0.00 | 0.00 | 0.00 | 72 | 1019.0 |
| 20260505063812 | 59 | 324 | 0.0 | 3.0 | 0.00 | 0.00 | 0.00 | 72 | 1019.0 |
| 20260505063312 | 59 | 27 | 0.0 | 0.0 | 0.00 | 0.00 | 0.00 | 74 | 1018.9 |
| 20260505062812 | 59 | 27 | 0.0 | 0.0 | 0.00 | 0.00 | 0.00 | 75 | 1018.9 |
| 20260505062312 | 58 | 343 | 0.0 | 0.0 | 0.00 | 0.00 | 0.00 | 76 | 1018.8 |
| 20260505061812 | 57 | 343 | 0.0 | 0.0 | 0.00 | 0.00 | 0.00 | 76 | 1018.7 |
| 20260505061312 | 57 | 344 | 0.0 | 0.0 | 0.00 | 0.00 | 0.00 | 77 | 1018.7 |
| 20260505060812 | 57 | 343 | 0.0 | 0.0 | 0.00 | 0.00 | 0.00 | 78 | 1018.8 |
| 20260505060312 | 56 | 344 | 0.0 | 0.0 | 0.00 | 0.00 | 0.00 | 80 | 1018.7 |
| 20260505055812 | 54 | 310 | 0.0 | 0.0 | 0.00 | 0.00 | 0.00 | 81 | 1018.7 |
| 20260505055312 | 54 | 309 | 0.0 | 0.0 | 0.00 | 0.00 | 0.00 | 81 | 1018.7 |
| 20260505054812 | 54 | 309 | 0.0 | 0.0 | 0.00 | 0.00 | 0.00 | 83 | 1018.7 |
| 20260505054312 | 53 | 310 | 0.0 | 0.0 | 0.00 | 0.00 | 0.00 | 83 | 1018.7 |
| 20260505053812 | 53 | 310 | 0.0 | 0.0 | 0.00 | 0.00 | 0.00 | 83 | 1018.8 |
| 20260505053312 | 53 | 310 | 0.0 | 0.0 | 0.00 | 0.00 | 0.00 | 83 | 1018.8 |
| 20260505052812 | 53 | 310 | 0.0 | 0.0 | 0.00 | 0.00 | 0.00 | 85 | 1018.7 |
| 20260505052312 | 52 | 310 | 0.0 | 0.0 | 0.00 | 0.00 | 0.00 | 85 | 1018.7 |
| 20260505051812 | 52 | 310 | 0.0 | 0.0 | 0.00 | 0.00 | 0.00 | 86 | 1018.7 |
| 20260505051312 | 51 | 310 | 0.0 | 0.0 | 0.00 | 0.00 | 0.00 | 87 | 1018.7 |
| 20260505050812 | 50 | 310 | 0.0 | 1.0 | 0.00 | 0.00 | 0.00 | 87 | 1018.7 |
| 20260505050312 | 49 | 309 | 0.0 | 0.0 | 0.00 | 0.00 | 0.00 | 88 | 1018.7 |
| 20260505041312 | 47 | 273 | 3.0 | 4.0 | 0.00 | 0.00 | 0.00 | 86 | 1018.8 |
| 20260505040812 | 47 | 277 | 2.0 | 3.0 | 0.00 | 0.00 | 0.00 | 86 | 1018.6 |
| 20260505040312 | 47 | 278 | 2.0 | 3.0 | 0.00 | 0.00 | 0.00 | 86 | 1018.6 |
| 20260505035812 | 47 | 277 | 2.0 | 4.0 | 0.00 | 0.00 | 0.00 | 85 | 1018.7 |
| 20260505035312 | 47 | 304 | 2.0 | 3.0 | 0.00 | 0.00 | 0.00 | 85 | 1018.6 |
| 20260505034812 | 47 | 306 | 2.0 | 3.0 | 0.00 | 0.00 | 0.00 | 85 | 1018.6 |
| 20260505034312 | 47 | 307 | 1.0 | 3.0 | 0.00 | 0.00 | 0.00 | 85 | 1018.6 |
| 20260505033812 | 47 | 65 | 1.0 | 2.0 | 0.00 | 0.00 | 0.00 | 84 | 1018.5 |
| 20260505033312 | 48 | 65 | 0.0 | 0.0 | 0.00 | 0.00 | 0.00 | 84 | 1018.6 |
| 20260505032812 | 48 | 65 | 1.0 | 2.0 | 0.00 | 0.00 | 0.00 | 84 | 1018.5 |
| 20260505032312 | 48 | 65 | 2.0 | 2.0 | 0.00 | 0.00 | 0.00 | 84 | 1018.5 |
| 20260505031812 | 48 | 65 | 2.0 | 2.0 | 0.00 | 0.00 | 0.00 | 85 | 1018.5 |
| 20260505031312 | 48 | 65 | 2.0 | 2.0 | 0.00 | 0.00 | 0.00 | 84 | 1018.5 |
| 20260505030812 | 48 | 65 | 1.0 | 2.0 | 0.00 | 0.00 | 0.00 | 84 | 1018.5 |
| 20260505030312 | 48 | 65 | 0.0 | 2.0 | 0.00 | 0.00 | 0.00 | 84 | 1018.5 |
| 20260505025812 | 48 | 65 | 1.0 | 0.0 | 0.00 | 0.00 | 0.00 | 83 | 1018.4 |
| 20260505025312 | 48 | 65 | 2.0 | 2.0 | 0.00 | 0.00 | 0.00 | 83 | 1018.4 |
| 20260505024812 | 48 | 65 | 2.0 | 3.0 | 0.00 | 0.00 | 0.00 | 83 | 1018.4 |
| 20260505024312 | 48 | 65 | 2.0 | 3.0 | 0.00 | 0.00 | 0.00 | 83 | 1018.5 |
| 20260505023812 | 48 | 65 | 2.0 | 3.0 | 0.00 | 0.00 | 0.00 | 83 | 1018.4 |
| 20260505023312 | 48 | 65 | 2.0 | 3.0 | 0.00 | 0.00 | 0.00 | 83 | 1018.4 |